Location: Aula-Vintri
(58.3875°N, 22.4322°E)
Time: 15:48:24
(UTC+00:00)

Cosmos 2082 Rocket - Pass Details

Date: 13 October 2019
Orbit: 832 x 855 km, 71.0° (Epoch: 12 November)

Event Time Altitude Azimuth Distance (km) Brightness Sun altitude
Rises 16:23:14 0° 316° (NW) 3,438 6.0 -7.5°
Reaches altitude 10° 16:25:53 10° 324° (NW) 2,500 5.1 -7.9°
Maximum altitude 16:31:15 39° 33° (NNE) 1,265 2.9 -8.6°
Enters shadow 16:36:23 11° 101° (ESE) 2,415 3.9 -9.3°
